Weather in Ustymivka

Ukraine / Poltava Region     49°31′14″N   33°11′24″E
temp.,
°C
wind,
m/s
gust,
m/s
humid.,
%
clouds,
%
prec.,
mm/h
press.,
hPa
HPBL,
m
5 march, fri
fri523:00+3wsw498942 0.0 1010249
02:00+2w499465 0.1 1010224
05:00+2nw4796100 0.0 1011309
08:00+1nw2392100 0.0 1012249
11:00+3nnw3372100 0.0 1013649
14:00+4nnw3365100 0.0 1014878
17:00+3n4578100 0.1 1014534
20:00+1nne4682100 0.3 1016582
6 march, sat
sat623:000nne4787100 0.4 1016678
02:00−1n5786100 0.9 1018507
05:00−2n4776100 0.1 1018557
08:00−1n6969100 0.1 1021760
11:000n794633 0.0 10221077
14:000nnw794517 0.0 10231426
17:00−1wnw58530 0.0 10231011
20:00−2w4107017 0.0 1024573
7 march, sun
sun723:00−3w487733 0.0 1025295
02:00−3w367817 0.0 1025235
05:00−3wsw59740 0.0 1023350
08:00−2wsw712639 0.0 1021631
11:00+1wsw101459100 0.0 10181038
14:00+3wsw111659100 0.0 10161484
17:00+2wsw81666100 0.0 10141355
20:000wsw7147795 0.0 1013670
8 march, mon
mon823:000wsw7147980 0.0 1012673
02:00−1w6138461 0.0 1011656
05:00−1w6138463 0.0 1011637
08:00−1w7118881 0.1 1012784
11:00+1wnw6969100 0.3 10121042
14:00+1wnw81055100 0.6 10131496
17:00−1nw476094 0.1 1014800
20:00−3nw227557 0.1 101730
9 march, tue
tue923:00−3w12780 0.0 101726
02:00−3w22789 0.0 101773
05:00−3nw247585 0.1 1018168
08:00−2nnw456775 0.1 1019640
11:00−1nnw675696 0.0 10211237
14:00−2nnw675598 0.1 10221199
17:00−4nnw57600 0.0 1023898
20:00−5n35680 0.0 1026619